DW3546 Weather Reports


Display with metric or nautical units.
time (UTC)temp
F
wind
direction
speed
MPH
gust
MPH
rain 1hr
in
rain 24hr
in
rain mn
in
humidity
%
barometer
mb
20220702231016 64 45 2.0 4.0 0.00 0.00 0.00 66 1016.3
20220702230016 64 23 3.0 7.0 0.00 0.00 0.00 64 1016.4
20220702225017 63 338 3.0 7.0 0.00 0.00 0.00 66 1016.4
20220702224016 64 23 3.0 8.0 0.00 0.00 0.00 65 1016.4
20220702223016 64 45 3.0 7.0 0.00 0.00 0.00 65 1016.5
20220702222016 64 0 3.0 6.0 0.00 0.00 0.00 65 1016.4
20220702221016 64 0 2.0 4.0 0.00 0.00 0.00 67 1016.3
20220702220016 63 0 3.0 9.0 0.00 0.00 0.00 68 1016.4
20220702215016 64 45 3.0 5.0 0.00 0.00 0.00 66 1016.4
20220702214016 63 23 3.0 6.0 0.00 0.00 0.00 68 1016.5
20220702213016 63 23 2.0 6.0 0.00 0.00 0.00 66 1016.6
20220702212016 63 23 2.0 8.0 0.00 0.00 0.00 68 1016.5
20220702211016 63 0 3.0 7.0 0.00 0.00 0.00 68 1016.7
20220702210016 63 338 2.0 7.0 0.00 0.00 0.00 68 1016.6
20220702205016 63 0 3.0 8.0 0.00 0.00 0.00 68 1016.6
20220702204016 63 338 3.0 6.0 0.00 0.00 0.00 69 1016.7
20220702203016 63 0 3.0 8.0 0.00 0.00 0.00 68 1016.6
20220702202017 61 23 3.0 7.0 0.00 0.00 0.00 70 1016.4
20220702201016 63 0 4.0 8.0 0.00 0.00 0.00 67 1016.6
20220702200016 63 270 2.0 4.0 0.00 0.00 0.00 68 1016.6
20220702195016 63 315 2.0 5.0 0.00 0.00 0.00 67 1016.7
20220702194015 63 293 2.0 5.0 0.00 0.00 0.00 68 1016.7
20220702193016 62 293 2.0 7.0 0.00 0.00 0.00 68 1016.7
20220702192016 62 315 2.0 6.0 0.00 0.00 0.00 70 1016.5
20220702191016 60 338 3.0 8.0 0.00 0.00 0.00 71 1016.5
20220702190016 61 23 1.0 4.0 0.00 0.00 0.00 71 1016.4
20220702185015 61 338 2.0 6.0 0.00 0.00 0.00 71 1016.5
20220702184016 60 23 1.0 4.0 0.00 0.00 0.00 73 1016.4
20220702183016 59 45 2.0 5.0 0.00 0.00 0.00 73 1016.4
20220702182016 59 23 2.0 6.0 0.00 0.00 0.00 75 1016.4
20220702181015 59 338 3.0 7.0 0.00 0.00 0.00 74 1016.3
20220702180016 59 23 2.0 6.0 0.00 0.00 0.00 76 1016.2
20220702175015 57 45 3.0 7.0 0.00 0.00 0.00 78 1016.1
20220702174015 57 0 2.0 6.0 0.00 0.00 0.00 78 1016.0
20220702173015 56 0 1.0 6.0 0.00 0.00 0.00 80 1016.0
20220702172015 56 45 2.0 5.0 0.00 0.00 0.00 79 1016.0
20220702171016 56 23 2.0 5.0 0.00 0.00 0.00 80 1016.0
20220702170016 56 338 2.0 6.0 0.00 0.00 0.00 82 1015.9
20220702165016 54 45 2.0 7.0 0.00 0.00 0.00 84 1015.7
20220702164015 54 315 3.0 5.0 0.00 0.00 0.00 83 1015.8
20220702163016 54 315 2.0 4.0 0.00 0.00 0.00 85 1015.9
20220702162016 53 0 1.0 3.0 0.00 0.00 0.00 88 1015.7
20220702161016 52 338 1.0 2.0 0.00 0.00 0.00 91 1015.6
20220702160015 51 338 1.0 3.0 0.00 0.00 0.00 92 1015.6
20220702155015 50 338 1.0 2.0 0.00 0.00 0.00 94 1015.5
20220702154015 49 338 1.0 2.0 0.00 0.00 0.00 94 1015.4
20220702153015 49 338 1.0 4.0 0.00 0.00 0.00 95 1015.5
20220702152015 49 0.0 2.0 0.00 0.00 0.00 95 1015.6
20220702151016 48 315 1.0 3.0 0.00 0.00 0.00 96 1015.4
20220702150016 48 0.0 0.0 0.00 0.00 0.00 95 1015.4
20220702145016 48 315 1.0 3.0 0.00 0.00 0.00 95 1015.3
20220702144015 48 0.0 2.0 0.00 0.00 0.00 96 1015.3
20220702143016 48 0.0 3.0 0.00 0.00 0.00 96 1015.4
20220702142015 48 315 1.0 3.0 0.00 0.00 0.00 96 1015.5
20220702141015 47 0.0 3.0 0.00 0.00 0.00 96 1015.4
20220702140015 47 0.0 2.0 0.00 0.00 0.00 96 1015.4
20220702135015 47 0.0 2.0 0.00 0.00 0.00 96 1015.3
20220702134015 46 0.0 1.0 0.00 0.00 0.00 96 1015.2
20220702133016 46 0.0 0.0 0.00 0.00 0.00 96 1015.3
20220702132015 46 0.0 0.0 0.00 0.00 0.00 96 1015.3
20220702131015 46 0.0 0.0 0.00 0.00 0.00 96 1015.2
20220702130015 46 0.0 0.0 0.00 0.00 0.00 95 1015.3
20220702125015 46 0.0 2.0 0.00 0.00 0.00 96 1015.5
20220702124015 46 0.0 1.0 0.00 0.00 0.00 95 1015.3
20220702123015 46 0.0 0.0 0.00 0.00 0.00 95 1015.2
20220702122015 46 0.0 0.0 0.00 0.00 0.00 95 1015.1
20220702121015 47 0.0 0.0 0.00 0.00 0.00 95 1015.3
20220702120015 47 0.0 1.0 0.00 0.00 0.00 95 1015.2
20220702115015 47 0.0 0.0 0.00 0.00 0.00 95 1015.1
20220702114015 47 0.0 0.0 0.00 0.00 0.00 95 1015.2
20220702113015 47 0.0 0.0 0.00 0.00 0.00 95 1015.2
20220702112015 47 0.0 0.0 0.00 0.00 0.00 95 1015.2
20220702111015 47 0.0 0.0 0.00 0.00 0.00 95 1015.2
20220702110015 47 0.0 0.0 0.00 0.00 0.00 95 1015.2
20220702105015 47 0.0 0.0 0.00 0.00 0.00 95 1015.3
20220702104015 47 0.0 0.0 0.00 0.00 0.00 95 1015.3
20220702103015 47 0.0 0.0 0.00 0.00 0.00 95 1015.6
20220702102015 47 0.0 0.0 0.00 0.00 0.00 95 1015.5
20220702101015 47 0.0 0.0 0.00 0.00 0.00 95 1015.6
20220702100017 47 0.0 0.0 0.00 0.00 0.00 95 1015.5
20220702095017 47 0.0 0.0 0.00 0.00 0.00 95 1015.5
20220702094017 47 0.0 0.0 0.00 0.00 0.00 95 1015.5
20220702093017 47 0.0 0.0 0.00 0.00 0.00 95 1015.5
20220702092017 47 0.0 0.0 0.00 0.00 0.00 95 1015.6
20220702091017 47 0.0 0.0 0.00 0.00 0.00 95 1015.5
20220702090017 47 0.0 0.0 0.00 0.00 0.00 95 1015.7
20220702085017 47 0.0 0.0 0.00 0.00 0.00 95 1015.6
20220702084017 47 0.0 0.0 0.00 0.00 0.00 95 1015.7
20220702083017 48 0.0 0.0 0.00 0.00 0.00 95 1015.8
20220702082017 48 0.0 1.0 0.00 0.00 0.00 95 1015.9
20220702081016 48 0.0 1.0 0.00 0.00 0.00 95 1015.9
20220702080017 48 0.0 1.0 0.00 0.00 0.00 95 1015.9
20220702075017 48 0.0 0.0 0.00 0.00 0.00 95 1015.9
20220702074017 48 0.0 0.0 0.00 0.00 0.00 95 1015.8
20220702073017 48 0.0 0.0 0.00 0.00 0.00 94 1015.7
20220702072017 48 0.0 0.0 0.00 0.00 0.00 95 1015.8
20220702071017 48 0.0 0.0 0.00 0.00 0.00 94 1015.8
20220702070016 49 0.0 0.0 0.00 0.00 0.00 94 1015.7
20220702065015 49 0.0 0.0 0.00 0.00 0.00 94 1015.7
20220702064015 49 0.0 0.0 0.00 0.00 0.00 94 1015.8
20220702063015 49 0.0 0.0 0.00 0.00 0.00 94 1015.9
20220702062015 49 0.0 0.0 0.00 0.00 0.00 94 1015.8
20220702061015 49 0.0 1.0 0.00 0.00 0.00 93 1015.8
20220702060015 50 0.0 1.0 0.00 0.00 0.00 93 1015.9
20220702055015 50 0.0 1.0 0.00 0.00 0.00 93 1015.9
20220702054015 51 0.0 0.0 0.00 0.00 0.00 93 1016.0
20220702053015 51 0.0 0.0 0.00 0.00 0.00 93 1015.9
20220702052016 51 0.0 0.0 0.00 0.00 0.00 92 1016.0
20220702051015 51 0.0 1.0 0.00 0.00 0.00 93 1015.8
20220702050016 51 0.0 0.0 0.00 0.00 0.00 92 1015.7
20220702045015 52 0.0 1.0 0.00 0.00 0.00 92 1015.7
20220702044015 52 0.0 1.0 0.00 0.00 0.00 91 1015.5
20220702043015 52 0.0 1.0 0.00 0.00 0.00 91 1015.4
20220702042017 52 0.0 0.0 0.00 0.00 0.00 89 1015.3
20220702041017 53 0.0 0.0 0.00 0.00 0.00 88 1015.3
20220702040017 54 0.0 0.0 0.00 0.00 0.00 86 1015.3
20220702035017 55 0.0 0.0 0.00 0.00 0.00 84 1015.2
20220702034017 56 0.0 0.0 0.00 0.00 0.00 81 1015.4
20220702033018 58 0.0 0.0 0.00 0.00 0.00 79 1015.5
20220702032017 59 0.0 2.0 0.00 0.00 0.00 78 1015.4
20220702031017 59 0.0 2.0 0.00 0.00 0.00 78 1015.4
20220702030017 60 0.0 2.0 0.00 0.00 0.00 77 1015.6
20220702025017 60 0 1.0 4.0 0.00 0.00 0.00 76 1015.8
20220702024017 61 0.0 1.0 0.00 0.00 0.00 75 1015.8
20220702023016 62 23 1.0 2.0 0.00 0.00 0.00 71 1015.8
20220702022017 63 0.0 2.0 0.00 0.00 0.00 71 1015.7
20220702021017 63 23 1.0 2.0 0.00 0.00 0.00 70 1015.7
20220702020017 64 23 1.0 3.0 0.00 0.00 0.00 69 1015.8
20220702015017 64 23 1.0 2.0 0.00 0.00 0.00 68 1015.7
20220702014017 65 23 2.0 4.0 0.00 0.00 0.00 66 1015.6
20220702013017 66 23 2.0 4.0 0.00 0.00 0.00 66 1015.6
20220702012016 66 23 2.0 3.0 0.00 0.00 0.00 65 1015.6
20220702011017 67 0 2.0 4.0 0.00 0.00 0.00 63 1015.8
20220702010017 68 0 1.0 4.0 0.00 0.00 0.00 63 1015.8
20220702005017 69 0 1.0 4.0 0.00 0.00 0.00 61 1015.9
20220702004016 68 0 1.0 4.0 0.00 0.00 0.00 62 1015.9
20220702003016 69 0 1.0 4.0 0.00 0.00 0.00 60 1016.2
20220702002016 69 23 2.0 4.0 0.00 0.00 0.00 60 1016.3
20220702001017 70 68 2.0 4.0 0.00 0.00 0.00 60 1016.4
20220702000017 69 23 2.0 5.0 0.00 0.00 0.00 60 1016.4
20220701235016 70 23 2.0 6.0 0.00 0.00 0.00 60 1016.5
20220701234017 69 0 2.0 5.0 0.00 0.00 0.00 61 1016.5
20220701233017 69 23 2.0 4.0 0.00 0.00 0.00 61 1016.5
20220701232017 68 23 2.0 6.0 0.00 0.00 0.00 62 1016.5